NIMBUS 2 DEB, 27406

Orbit data source: Space-Track

NIMBUS 2 DEB, 27406 is space debris in SSO originally from a launch on Sun, 15 May 1966 UTC launched from the Air Force Western Test Range (AFWTR). Debris objects in space refer to the collection of defunct objects orbiting the Earth. Examples of debris include non-operational satellites, rocket bodies, and fragments generated from explosions, collisions, or faulty payload assembly.

Loading next visibility...
Identifier
27406, 1966-040AL
Orbit
SSO
Country
Flag of USUS
Related business
Manufacturer
Unknown
Mission
Spacecraft
Bus & Motor
Unknown
Mass
Unknown
Launch date (UTC)
1966-05-15 (59 years ago)
Launch vehicle
Unknown
Launch site
Air Force Western Test Range (AFWTR)
Object type
Payload
Rocket body
Debris
Shape & HBR
Unknown
Radar Cross Section
Small (<0.1 m²)

Expand to show TLE details & history
Last TLE update: 2 days ago

TLE from 2 days ago
0 NIMBUS 2 DEB
1 27406U 66040AL  25259.29670297  .00002539  00000-0  30520-2 0  9991
2 27406 100.3066 279.3164 0041882 180.3462 194.3860 13.67485468287893
Epoch: 2025-09-16T07:07Z
TLE epoch observation values (Epoch: 2025-09-16T07:07:15.136Z)
Latitude
14.34583°
Longitude
174.36238°
Altitude
1,040.66 km
Speed
7.318 km/s
True Right ascension
18h 26m 39s
True Declination
14° 15' 60"
Sunlit
Object was in daylight at epoch
Visualization orbit readout
Latitude
Unknown
Longitude
Unknown
Altitude
Unknown
Speed
Unknown
Apparent Right ascension
Unknown
Apparent Declination
Unknown
Sunlit
N/A
Visualization observer readout
Local Sidereal Time
00:58:37
Azimuth
Unknown
Elevation
Unknown
Doppler factor
Unknown
Orbital elements
Apogee altitude
1,036.849 km
Perigee altitude
974.997 km
Semi-major axis
7,384.06 km
Eccentricity
0.00419
Inclination
100.3066°
RAAN
279.3164°
Arg. of periapsis
180.3462°
True anomaly
194.26736°
Mean anomaly
194.386°
Eccentric anomaly
194.32662°
Mean motion
3.42058 °/min
Orbital period
105.25 mins
BSTAR
0.003052
Loading maneuver chart data...
Computing Atmospheric mass density...
Loading historical data...
Loading historical data...
Loading historical data...
Loading historical data...
Loading historical data...
Loading historical data...
Loading historical data...

Documentation

Showing up to 5 results
|